Location: Red Deer
(52.2681°N, 113.8112°W)
Time: 07:49:50
(UTC-06:00)

Tiangong - Visible Passes

Search period start: 29 September 2023 00:00
Search period end: 09 October 2023 00:00
Orbit: 373 x 384 km, 41.5° (Epoch: 28 September)

Date Brightness Start Highest point End Pass type
(mag) Time Alt. Az. Time Alt. Az. Time Alt. Az.
02 Oct 0.4 20:50:12 10° SSW 20:51:07 11° S 20:51:07 11° S visible
04 Oct 0.3 20:22:46 10° SSW 20:24:03 12° S 20:25:15 10° SSE visible
05 Oct 0.6 20:57:38 10° SSW 20:58:16 10° S 20:58:16 10° S visible
06 Oct 0.5 19:55:25 10° SSW 19:56:37 12° S 19:57:50 10° SSE visible
